Location: Liberec
(50.7830°N, 15.0500°E)
Time: 06:57:40
(UTC+02:00)

HTV-X1 - Visible Passes

Search period start: 20 May 2026 00:00
Search period end: 30 May 2026 00:00
Orbit: 372 x 382 km, 51.6° (Epoch: 19 May)

Date Brightness Start Highest point End Pass type
(mag) Time Alt. Az. Time Alt. Az. Time Alt. Az.
20 May ? 21:40:37 10° WNW 21:43:41 76° SSW 21:46:45 10° ESE visible
20 May ? 23:16:50 10° W 23:18:59 20° SW 23:18:59 20° SW visible
21 May ? 22:15:24 10° W 22:18:15 35° SSW 22:20:02 19° SSE visible
22 May ? 22:50:44 10° WSW 22:52:33 15° SW 22:53:07 14° SSW visible
23 May ? 21:48:56 10° W 21:51:34 26° SSW 21:54:07 10° SSE visible
24 May ? 22:25:11 10° SW 22:25:41 10° SW 22:26:09 10° SW visible
